This is the latest recevied weather packets stored in our database for station/object G1YBJ-13. If no packets are shown the sender has not sent any weather packets the latest 10 day(s).
| Time | Temp. | Humidity | Pressure | Rain* | Wind** | Luminosity | Snow |
|---|---|---|---|---|---|---|---|
| 1777643298 | 30.56° C | 44% | 1018.9 hPa | - | - | - | - |
| 1777642397 | 30° C | 42% | 1019.1 hPa | - | - | - | - |
| 1777641497 | 30° C | 43% | 1019.2 hPa | - | - | - | - |
| 1777640595 | 30° C | 41% | 1019.2 hPa | - | - | - | - |
| 1777639694 | 30° C | 42% | 1019.4 hPa | - | - | - | - |
| 1777638794 | 30° C | 44% | 1019.5 hPa | - | - | - | - |
| 1777637892 | 29.44° C | 45% | 1019.6 hPa | - | - | - | - |
| 1777636992 | 28.89° C | 44% | 1019.7 hPa | - | - | - | - |
| 1777636091 | 28.33° C | 42% | 1019.8 hPa | - | - | - | - |
| 1777635190 | 28.33° C | 44% | 1019.9 hPa | - | - | - | - |
| 1777634289 | 27.22° C | 45% | 1020.1 hPa | - | - | - | - |
| 1777633387 | 26.67° C | 45% | 1020.2 hPa | - | - | - | - |
| 1777632487 | 26.11° C | 43% | 1020.3 hPa | - | - | - | - |
| 1777631586 | 25.56° C | 44% | 1020.5 hPa | - | - | - | - |
| 1777630685 | 24.44° C | 48% | 1020.6 hPa | - | - | - | - |
| 1777629784 | 24.44° C | 48% | 1020.7 hPa | - | - | - | - |
| 1777628884 | 23.33° C | 49% | 1020.8 hPa | - | - | - | - |
| 1777627982 | 22.78° C | 47% | 1020.9 hPa | - | - | - | - |
| 1777627081 | 21.67° C | 49% | 1021 hPa | - | - | - | - |
| 1777626180 | 21.11° C | 51% | 1021.1 hPa | - | - | - | - |
| 1777625280 | 20.56° C | 50% | 1021.1 hPa | - | - | - | - |
| 1777624379 | 19.44° C | 51% | 1021.2 hPa | - | - | - | - |
| 1777623478 | 18.89° C | 51% | 1021.2 hPa | - | - | - | - |
| 1777622577 | 17.22° C | 53% | 1021.1 hPa | - | - | - | - |
| 1777621676 | 16.11° C | 52% | 1021 hPa | - | - | - | - |
* Rain since midnight (hover to see other rain measurements)
** Current wind speed in m/s (hover to see current wind gust speed)